Home   Weather   Granada   Past weeks

Flag for Spain Past Weather in Granada, Spain — Yesterday and Last 2 Weeks

Now
45 °F

Quite cool.


Feels Like: 45 °F
Forecast: 40 / 65 °F
Wind: 1 mph from North

Location: Granada / Aeropuerto

Current Time: Dec 10, 2016 at 12:11:25 am

Latest Report: Dec 9, 2016 at 11:30 pm


Visibility: N/A

Pressure: 30.42 "Hg (27.94 "Hg at 698m altitude)

Humidity: 100%

Dew Point: 45 °F

Location of GranadaLocation

Past Weather in Granada — Graph

°F

Granada Temperature Yesterday

Maximum temperature yesterday: 63 °F (at 2:00 pm)
Minimum temperature yesterday: 37 °F (at 6:30 am)
Average temperature yesterday: 49 °F

High & Low Weather Summary for the Past Weeks

 TemperatureHumidityPressure
High68 °F (Dec 6, 3:30 pm)100% (Nov 25, 2:00 am)30.48 "Hg (Nov 25, 2:00 am)
Low36 °F (Nov 25, 2:00 am)48% (Dec 8, 2:30 pm)29.68 "Hg (Nov 26, 1:30 am)
Average51 °F86%30.06 "Hg
* Reported Nov 24 11:00 pm — Dec 9 11:00 pm, Granada, Weather by CustomWeather, © 2016

Note: Actual official high and low records may vary slightly from our data, if they occured in-between our weather recording intervals... More about our weather records

Advertising

Granada Weather History for the Previous 24 Hours

Scroll right to see more
 ConditionsComfort  
Time TempWeatherWind HumidityBarometerVisibility
11:00 pm
Fri, Dec 9
46 °FPassing clouds.1 mph100%30.42 "HgN/A
10:30 pm46 °FPassing clouds.No wind93%30.42 "HgN/A
10:00 pm46 °FPassing clouds.No wind93%30.42 "HgN/A
9:30 pm48 °FPassing clouds.No wind94%30.42 "HgN/A
9:00 pm48 °FPassing clouds.No wind94%30.42 "HgN/A
8:30 pm48 °FPassing clouds.No wind94%30.42 "HgN/A
8:00 pm50 °FPassing clouds.No wind94%30.42 "HgN/A
7:30 pm54 °FPassing clouds.3 mph82%30.42 "HgN/A
7:00 pm57 °FPassing clouds.1 mph77%30.42 "HgN/A
6:30 pm57 °FPassing clouds.1 mph77%30.42 "HgN/A
6:00 pm59 °FPassing clouds.No wind77%30.39 "HgN/A
5:30 pm61 °FPassing clouds.3 mph72%30.42 "HgN/A
5:00 pm63 °FPassing clouds.6 mph68%30.39 "HgN/A
4:30 pm63 °FPassing clouds.7 mph64%30.39 "HgN/A
4:00 pm63 °FPassing clouds.1 mph59%30.39 "HgN/A
3:30 pm63 °FPassing clouds.No wind59%30.42 "HgN/A
3:00 pm63 °FPassing clouds.No wind59%30.42 "HgN/A
2:00 pm63 °FPassing clouds.1 mph59%30.42 "HgN/A
1:30 pm61 °FPassing clouds.2 mph63%30.42 "HgN/A
1:00 pm59 °FPassing clouds.3 mph72%30.45 "HgN/A
12:30 pm57 °FPassing clouds.2 mph72%30.45 "HgN/A
12:00 pm55 °FPassing clouds.2 mph72%30.48 "HgN/A
11:30 am55 °FPassing clouds.2 mph67%30.48 "HgN/A
11:00 am52 °FPassing clouds.No wind77%30.48 "HgN/A
10:30 am48 °FPassing clouds.No wind82%30.48 "HgN/A
10:00 am45 °FPassing clouds.No wind87%30.48 "HgN/A
9:30 am41 °FPassing clouds.No wind93%30.48 "HgN/A
9:00 am37 °FPassing clouds.No wind100%30.45 "HgN/A
8:30 am37 °FPassing clouds.No wind93%30.45 "HgN/A
8:00 am37 °FClear.1 mph93%30.45 "Hg10 mi
7:30 am37 °FClear.2 mph93%30.45 "Hg10 mi
7:00 am37 °FClear.No wind100%30.45 "Hg10 mi
6:30 am37 °FClear.No wind100%30.45 "Hg10 mi
5:30 am39 °FChilly.No wind93%30.45 "HgN/A
5:00 am39 °FChilly.No wind93%30.45 "HgN/A
4:30 am39 °FChilly.No wind100%30.45 "HgN/A
4:00 am41 °FQuite cool.No wind93%30.45 "HgN/A
3:30 am43 °FQuite cool.1 mph93%30.45 "HgN/A
3:00 am43 °FQuite cool.1 mph93%30.45 "HgN/A
2:30 am43 °FQuite cool.5 mph93%30.45 "HgN/A
2:00 am45 °FQuite cool.3 mph87%30.48 "HgN/A
1:30 am46 °FCool.3 mph87%30.48 "HgN/A
1:00 am45 °FQuite cool.3 mph87%30.48 "HgN/A
12:30 am45 °FQuite cool.2 mph93%30.48 "HgN/A
12:00 am46 °FCool.1 mph87%30.48 "HgN/A
Weather by CustomWeather, © 2016

See weather overviewHow to use our weather pages